Time,TemperatureF,DewpointF,PressureIn,WindDirection,WindDirectionDegrees,WindSpeedMPH,WindSpeedGustMPH,Humidity,HourlyPrecipIn,Conditions,Clouds,dailyrainin,SoftwareType,DateUTC
2013-04-23 00:00:00,47.0,47.0,29.54,East,90,1.2,1.2,100,0.00,RA,OVC,0.00,WeatherDisplay:10.37,2013-04-23 04:00:00,
2013-04-23 00:01:00,47.0,47.0,29.54,NE,45,1.2,1.2,100,0.00,RA,OVC,0.00,WeatherDisplay:10.37,2013-04-23 04:01:00,
2013-04-23 00:06:00,47.0,47.0,29.54,ENE,67,0.0,0.0,100,0.00,RA,OVC,0.00,WeatherDisplay:10.37,2013-04-23 04:06:00,
2013-04-23 00:11:00,47.0,47.0,29.54,ENE,67,0.0,0.0,100,0.00,CLR,OVC,0.00,WeatherDisplay:10.37,2013-04-23 04:11:00,
2013-04-23 00:16:00,47.0,47.0,29.54,ENE,67,1.2,0.0,100,0.00,CLR,OVC,0.00,WeatherDisplay:10.37,2013-04-23 04:16:00,
2013-04-23 00:21:00,47.0,47.0,29.54,East,90,0.0,0.0,100,0.00,CLR,OVC,0.00,WeatherDisplay:10.37,2013-04-23 04:21:00,
2013-04-23 00:26:00,47.0,47.0,29.54,South,180,0.0,0.0,100,0.00,CLR,OVC,0.00,WeatherDisplay:10.37,2013-04-23 04:26:00,
2013-04-23 00:31:00,47.0,47.0,29.54,SE,135,1.2,1.2,100,0.00,CLR,OVC,0.00,WeatherDisplay:10.37,2013-04-23 04:31:00,
2013-04-23 00:36:00,46.0,46.0,29.54,ESE,112,1.0,0.0,100,0.00,,OVC,0.00,WeatherDisplay:10.37,2013-04-23 04:36:00,
2013-04-23 00:41:00,46.0,46.0,29.53,NE,45,0.0,0.0,100,0.00,,OVC,0.00,WeatherDisplay:10.37,2013-04-23 04:41:00,
2013-04-23 00:46:00,46.0,46.0,29.53,NE,45,0.0,0.0,100,0.00,,OVC,0.00,WeatherDisplay:10.37,2013-04-23 04:46:00,
2013-04-23 00:51:00,46.0,46.0,29.53,ENE,67,0.0,0.0,100,0.00,,OVC,0.00,WeatherDisplay:10.37,2013-04-23 04:51:00,
2013-04-23 00:56:00,46.0,46.0,29.53,ESE,112,0.0,0.0,100,0.00,,OVC,0.00,WeatherDisplay:10.37,2013-04-23 04:56:00,
2013-04-23 01:01:00,46.0,46.0,29.53,ESE,112,0.0,0.0,100,0.00,,OVC,0.00,WeatherDisplay:10.37,2013-04-23 05:01:00,
2013-04-23 01:06:00,46.0,46.0,29.53,NE,45,1.2,1.2,100,0.00,,OVC,0.00,WeatherDisplay:10.37,2013-04-23 05:06:00,
2013-04-23 01:11:00,46.0,46.0,29.54,NE,45,0.0,0.0,100,0.00,,OVC,0.00,WeatherDisplay:10.37,2013-04-23 05:11:00,
2013-04-23 01:16:00,46.0,46.0,29.54,East,90,2.3,2.3,100,0.00,,OVC,0.00,WeatherDisplay:10.37,2013-04-23 05:16:00,
2013-04-23 01:21:00,46.0,46.0,29.53,ENE,67,0.0,0.0,100,0.00,,OVC,0.00,WeatherDisplay:10.37,2013-04-23 05:21:00,
2013-04-23 01:26:00,46.0,46.0,29.53,East,90,0.0,0.0,100,0.00,,OVC,0.00,WeatherDisplay:10.37,2013-04-23 05:26:00,
2013-04-23 01:31:00,46.0,46.0,29.53,ESE,112,0.0,0.0,100,0.00,,OVC,0.00,WeatherDisplay:10.37,2013-04-23 05:31:00,
2013-04-23 01:36:00,46.0,46.0,29.53,NNE,22,0.0,0.0,100,0.00,,OVC,0.00,WeatherDisplay:10.37,2013-04-23 05:36:00,
2013-04-23 01:41:00,46.0,46.0,29.53,ESE,112,0.0,0.1,100,0.00,,OVC,0.00,WeatherDisplay:10.37,2013-04-23 05:41:00,
2013-04-23 01:46:00,46.0,46.0,29.53,ESE,112,0.0,0.0,100,0.00,,OVC,0.00,WeatherDisplay:10.37,2013-04-23 05:46:00,
2013-04-23 01:51:00,46.0,46.0,29.53,ESE,112,0.0,0.0,100,0.00,,OVC,0.00,WeatherDisplay:10.37,2013-04-23 05:51:00,
2013-04-23 01:56:00,46.0,46.0,29.53,ESE,112,0.0,0.0,100,0.00,,OVC,0.00,WeatherDisplay:10.37,2013-04-23 05:56:00,
2013-04-23 02:01:00,46.0,46.0,29.53,SE,135,1.0,1.0,100,0.00,,OVC,0.00,WeatherDisplay:10.37,2013-04-23 06:01:00,
2013-04-23 02:06:00,46.0,46.0,29.53,East,90,0.0,0.0,100,0.00,,OVC,0.00,WeatherDisplay:10.37,2013-04-23 06:06:00,
2013-04-23 02:11:00,46.0,46.0,29.53,SE,135,0.0,0.0,100,0.00,,OVC,0.00,WeatherDisplay:10.37,2013-04-23 06:11:00,
2013-04-23 02:16:00,46.0,46.0,29.53,NE,45,0.0,0.2,100,0.00,,OVC,0.00,WeatherDisplay:10.37,2013-04-23 06:16:00,
2013-04-23 02:21:00,46.0,46.0,29.51,East,90,0.0,0.0,100,0.00,,OVC,0.00,WeatherDisplay:10.37,2013-04-23 06:21:00,
2013-04-23 02:26:00,46.0,46.0,29.51,NE,45,0.0,0.0,100,0.00,,OVC,0.00,WeatherDisplay:10.37,2013-04-23 06:26:00,
2013-04-23 02:31:00,46.0,46.0,29.51,NNE,22,0.0,0.0,100,0.00,,OVC,0.00,WeatherDisplay:10.37,2013-04-23 06:31:00,
2013-04-23 02:36:00,46.0,46.0,29.51,ENE,67,0.0,0.0,100,0.00,,OVC,0.00,WeatherDisplay:10.37,2013-04-23 06:36:00,
2013-04-23 02:41:00,46.0,46.0,29.51,ESE,112,0.0,0.0,100,0.00,,OVC,0.00,WeatherDisplay:10.37,2013-04-23 06:41:00,
2013-04-23 02:46:00,46.0,46.0,29.51,NNE,22,0.0,0.0,100,0.00,,OVC,0.00,WeatherDisplay:10.37,2013-04-23 06:46:00,
2013-04-23 02:51:00,46.0,46.0,29.51,NE,45,1.2,1.2,100,0.00,,OVC,0.00,WeatherDisplay:10.37,2013-04-23 06:51:00,
2013-04-23 02:56:00,46.0,46.0,29.51,ENE,67,0.0,0.0,100,0.00,,OVC,0.00,WeatherDisplay:10.37,2013-04-23 06:56:00,
2013-04-23 03:01:00,46.0,46.0,29.51,North,360,0.0,0.0,100,0.00,,OVC,0.00,WeatherDisplay:10.37,2013-04-23 07:01:00,
2013-04-23 03:06:00,46.0,46.0,29.51,NNE,22,0.0,0.0,100,0.00,,OVC,0.00,WeatherDisplay:10.37,2013-04-23 07:06:00,
2013-04-23 03:11:00,46.0,46.0,29.51,North,360,0.0,0.0,100,0.00,,OVC,0.00,WeatherDisplay:10.37,2013-04-23 07:11:00,
2013-04-23 03:16:00,46.0,46.0,29.51,North,360,0.0,0.1,100,0.00,,OVC,0.00,WeatherDisplay:10.37,2013-04-23 07:16:00,
2013-04-23 03:21:00,46.0,46.0,29.50,SE,135,1.2,1.2,100,0.00,,OVC,0.00,WeatherDisplay:10.37,2013-04-23 07:21:00,
2013-04-23 03:26:00,46.0,46.0,29.50,NNE,22,0.0,0.0,100,0.00,,OVC,0.00,WeatherDisplay:10.37,2013-04-23 07:26:00,
2013-04-23 03:31:00,46.0,46.0,29.51,ENE,67,0.0,0.0,100,0.00,,OVC,0.00,WeatherDisplay:10.37,2013-04-23 07:31:00,
2013-04-23 03:36:00,46.0,46.0,29.51,NNE,22,0.0,0.0,100,0.00,,OVC,0.00,WeatherDisplay:10.37,2013-04-23 07:36:00,
2013-04-23 03:41:00,46.0,46.0,29.50,ENE,67,0.0,0.0,100,0.00,,OVC,0.00,WeatherDisplay:10.37,2013-04-23 07:41:00,
2013-04-23 03:46:00,46.0,46.0,29.50,North,360,0.0,0.0,100,0.00,,OVC,0.00,WeatherDisplay:10.37,2013-04-23 07:46:00,
2013-04-23 03:51:00,46.0,46.0,29.50,ESE,112,0.0,0.1,100,0.00,,OVC,0.00,WeatherDisplay:10.37,2013-04-23 07:51:00,
2013-04-23 03:56:00,46.0,46.0,29.50,ESE,112,0.0,0.0,100,0.00,,OVC,0.00,WeatherDisplay:10.37,2013-04-23 07:56:00,
2013-04-23 04:01:00,46.0,46.0,29.50,NE,45,0.0,0.0,100,0.00,,OVC,0.00,WeatherDisplay:10.37,2013-04-23 08:01:00,
2013-04-23 04:06:00,46.0,46.0,29.50,East,90,0.0,0.0,100,0.00,,OVC,0.00,WeatherDisplay:10.37,2013-04-23 08:06:00,
2013-04-23 04:11:00,46.0,46.0,29.50,NNE,22,0.0,0.0,100,0.00,,OVC,0.00,WeatherDisplay:10.37,2013-04-23 08:11:00,
2013-04-23 04:16:00,46.0,46.0,29.50,NNW,337,1.2,1.2,100,0.00,,OVC,0.00,WeatherDisplay:10.37,2013-04-23 08:16:00,
2013-04-23 04:21:00,46.0,46.0,29.49,North,360,0.0,0.0,100,0.00,,OVC,0.00,WeatherDisplay:10.37,2013-04-23 08:21:00,
2013-04-23 04:26:00,46.0,46.0,29.49,North,360,0.0,0.0,100,0.00,,OVC,0.00,WeatherDisplay:10.37,2013-04-23 08:26:00,
2013-04-23 04:32:00,46.0,46.0,29.49,NNE,22,0.0,0.0,100,0.00,,OVC,0.00,WeatherDisplay:10.37,2013-04-23 08:32:00,
2013-04-23 04:37:00,46.0,46.0,29.49,NNE,22,0.0,0.0,100,0.00,,OVC,0.00,WeatherDisplay:10.37,2013-04-23 08:37:00,
2013-04-23 04:42:00,46.0,46.0,29.49,NNE,22,1.2,1.2,100,0.00,,OVC,0.00,WeatherDisplay:10.37,2013-04-23 08:42:00,
2013-04-23 04:47:00,46.0,46.0,29.49,East,90,3.5,0.0,100,0.00,,OVC,0.00,WeatherDisplay:10.37,2013-04-23 08:47:00,
2013-04-23 04:52:00,46.0,46.0,29.49,NE,45,0.0,0.1,100,0.00,,OVC,0.00,WeatherDisplay:10.37,2013-04-23 08:52:00,
2013-04-23 04:57:00,46.0,46.0,29.49,SE,135,0.0,0.2,100,0.00,,OVC,0.00,WeatherDisplay:10.37,2013-04-23 08:57:00,
2013-04-23 05:02:00,46.0,46.0,29.49,ESE,112,1.2,1.2,100,0.00,,OVC,0.00,WeatherDisplay:10.37,2013-04-23 09:02:00,
2013-04-23 05:07:00,46.0,46.0,29.49,ENE,67,0.0,0.0,100,0.00,,OVC,0.00,WeatherDisplay:10.37,2013-04-23 09:07:00,
2013-04-23 05:12:00,46.0,46.0,29.49,East,90,0.0,0.0,100,0.00,,OVC,0.00,WeatherDisplay:10.37,2013-04-23 09:12:00,
2013-04-23 05:17:00,46.0,46.0,29.49,NNE,22,0.0,0.0,100,0.00,,OVC,0.00,WeatherDisplay:10.37,2013-04-23 09:17:00,
2013-04-23 05:22:00,46.0,46.0,29.49,ENE,67,0.0,0.0,100,0.00,,OVC,0.00,WeatherDisplay:10.37,2013-04-23 09:22:00,
2013-04-23 05:27:00,46.0,46.0,29.49,East,90,0.0,0.0,100,0.00,,OVC,0.00,WeatherDisplay:10.37,2013-04-23 09:27:00,
2013-04-23 05:32:00,46.0,46.0,29.49,ENE,67,1.2,1.2,100,0.00,,OVC,0.00,WeatherDisplay:10.37,2013-04-23 09:32:00,
2013-04-23 05:37:00,46.0,46.0,29.49,SSE,157,0.0,0.0,100,0.00,,OVC,0.00,WeatherDisplay:10.37,2013-04-23 09:37:00,
2013-04-23 05:42:00,46.0,46.0,29.49,ENE,67,0.0,0.0,100,0.00,,OVC,0.00,WeatherDisplay:10.37,2013-04-23 09:42:00,
2013-04-23 05:47:00,46.0,46.0,29.49,NNE,22,1.2,0.0,100,0.00,,OVC,0.00,WeatherDisplay:10.37,2013-04-23 09:47:00,
2013-04-23 05:52:00,46.0,46.0,29.49,ENE,67,1.2,1.2,100,0.00,,OVC,0.00,WeatherDisplay:10.37,2013-04-23 09:52:00,
2013-04-23 05:57:00,46.0,46.0,29.49,NE,45,1.2,1.2,100,0.00,,OVC,0.00,WeatherDisplay:10.37,2013-04-23 09:57:00,
2013-04-23 06:02:00,46.0,46.0,29.49,NE,45,0.0,0.0,100,0.00,,OVC,0.00,WeatherDisplay:10.37,2013-04-23 10:02:00,
2013-04-23 06:07:00,46.0,46.0,29.49,NE,45,0.0,0.0,100,0.00,,OVC,0.00,WeatherDisplay:10.37,2013-04-23 10:07:00,
2013-04-23 06:12:00,46.0,46.0,29.49,ENE,67,0.0,0.0,100,0.00,,OVC,0.00,WeatherDisplay:10.37,2013-04-23 10:12:00,
2013-04-23 06:17:00,46.0,46.0,29.49,ESE,112,0.0,0.0,100,0.00,,OVC,0.00,WeatherDisplay:10.37,2013-04-23 10:17:00,
2013-04-23 06:22:00,46.0,46.0,29.49,North,360,0.0,0.0,100,0.00,,OVC,0.00,WeatherDisplay:10.37,2013-04-23 10:22:00,
2013-04-23 06:27:00,46.0,46.0,29.49,NE,45,0.0,0.0,100,0.00,,OVC,0.00,WeatherDisplay:10.37,2013-04-23 10:27:00,
2013-04-23 06:32:00,45.0,45.0,29.49,SSE,157,0.0,0.0,100,0.00,,OVC,0.00,WeatherDisplay:10.37,2013-04-23 10:32:00,
2013-04-23 06:37:00,45.0,45.0,29.49,NNE,22,0.0,0.0,100,0.00,,OVC,0.00,WeatherDisplay:10.37,2013-04-23 10:37:00,
2013-04-23 06:42:00,45.0,45.0,29.49,NNE,22,0.0,0.0,100,0.00,,OVC,0.00,WeatherDisplay:10.37,2013-04-23 10:42:00,
2013-04-23 06:47:00,45.0,45.0,29.49,ENE,67,0.0,0.0,100,0.00,,OVC,0.00,WeatherDisplay:10.37,2013-04-23 10:47:00,
2013-04-23 06:52:00,45.0,45.0,29.49,NE,45,0.0,0.0,100,0.00,,OVC,0.00,WeatherDisplay:10.37,2013-04-23 10:52:00,
2013-04-23 06:57:00,45.0,45.0,29.49,ENE,67,1.2,1.2,100,0.00,,OVC,0.00,WeatherDisplay:10.37,2013-04-23 10:57:00,
2013-04-23 07:02:00,46.0,46.0,29.50,East,90,1.2,0.0,100,0.00,,OVC,0.00,WeatherDisplay:10.37,2013-04-23 11:02:00,
2013-04-23 07:07:00,46.0,46.0,29.50,ENE,67,0.0,0.0,100,0.00,,OVC,0.00,WeatherDisplay:10.37,2013-04-23 11:07:00,
2013-04-23 07:12:00,46.0,46.0,29.50,ENE,67,0.0,0.0,100,0.00,,OVC,0.00,WeatherDisplay:10.37,2013-04-23 11:12:00,
2013-04-23 07:17:00,46.0,46.0,29.50,ENE,67,1.2,1.2,100,0.00,,OVC,0.00,WeatherDisplay:10.37,2013-04-23 11:17:00,
2013-04-23 07:22:00,46.0,46.0,29.50,ESE,112,0.0,0.0,100,0.00,,OVC,0.00,WeatherDisplay:10.37,2013-04-23 11:22:00,
2013-04-23 07:27:00,46.0,46.0,29.50,North,360,0.0,0.0,100,0.00,,OVC,0.00,WeatherDisplay:10.37,2013-04-23 11:27:00,
2013-04-23 07:32:00,46.0,46.0,29.50,North,360,0.0,0.0,100,0.00,,OVC,0.00,WeatherDisplay:10.37,2013-04-23 11:32:00,
2013-04-23 07:37:00,46.0,46.0,29.50,East,90,0.0,0.0,100,0.00,,OVC,0.00,WeatherDisplay:10.37,2013-04-23 11:37:00,
2013-04-23 07:42:00,46.0,46.0,29.50,East,90,0.0,0.0,100,0.00,,OVC,0.00,WeatherDisplay:10.37,2013-04-23 11:42:00,
2013-04-23 07:47:00,46.0,46.0,29.50,East,90,1.2,0.0,100,0.00,,OVC,0.00,WeatherDisplay:10.37,2013-04-23 11:47:00,
2013-04-23 07:52:00,46.0,46.0,29.51,SE,135,0.0,0.1,100,0.00,,OVC,0.00,WeatherDisplay:10.37,2013-04-23 11:52:00,
2013-04-23 07:57:00,46.0,45.7,29.51,ENE,67,0.0,0.0,99,0.00,CLR,OVC,0.00,WeatherDisplay:10.37,2013-04-23 11:57:00,
2013-04-23 08:02:00,46.0,45.7,29.51,NNE,22,0.0,0.0,99,0.00,CLR,OVC,0.00,WeatherDisplay:10.37,2013-04-23 12:02:00,
2013-04-23 08:07:00,46.0,45.7,29.51,ESE,112,0.0,0.0,99,0.00,CLR,OVC,0.00,WeatherDisplay:10.37,2013-04-23 12:07:00,
2013-04-23 08:12:00,46.0,45.7,29.50,ENE,67,0.0,0.0,99,0.00,CLR,OVC,0.00,WeatherDisplay:10.37,2013-04-23 12:12:00,
2013-04-23 08:17:00,47.0,46.5,29.50,NE,45,0.0,0.0,98,0.00,CLR,OVC,0.00,WeatherDisplay:10.37,2013-04-23 12:17:00,
2013-04-23 08:22:00,47.0,46.7,29.50,NE,45,1.2,1.2,99,0.00,CLR,OVC,0.00,WeatherDisplay:10.37,2013-04-23 12:22:00,
2013-04-23 08:27:00,47.0,46.5,29.51,NNE,22,0.0,0.0,98,0.00,CLR,OVC,0.00,WeatherDisplay:10.37,2013-04-23 12:27:00,
2013-04-23 08:32:00,47.0,46.5,29.51,SE,135,2.3,0.0,98,0.00,CLR,OVC,0.00,WeatherDisplay:10.37,2013-04-23 12:32:00,
2013-04-23 08:37:00,47.0,46.5,29.51,NNE,22,0.0,0.0,98,0.00,CLR,OVC,0.00,WeatherDisplay:10.37,2013-04-23 12:37:00,
2013-04-23 08:42:00,47.0,46.2,29.51,ESE,112,0.0,0.0,97,0.00,CLR,OVC,0.00,WeatherDisplay:10.37,2013-04-23 12:42:00,
2013-04-23 08:47:00,47.0,45.9,29.51,North,360,0.0,0.0,96,0.00,CLR,OVC,0.00,WeatherDisplay:10.37,2013-04-23 12:47:00,
2013-04-23 08:52:00,47.0,45.9,29.51,East,90,1.2,1.2,96,0.00,CLR,OVC,0.00,WeatherDisplay:10.37,2013-04-23 12:52:00,
2013-04-23 08:57:00,48.0,46.6,29.51,ESE,112,3.0,3.0,95,0.00,CLR,OVC,0.00,WeatherDisplay:10.37,2013-04-23 12:57:00,
2013-04-23 09:02:00,47.0,45.9,29.51,SE,135,1.2,1.2,96,0.00,CLR,OVC,0.00,WeatherDisplay:10.37,2013-04-23 13:02:00,
2013-04-23 09:07:00,48.0,46.6,29.51,ESE,112,0.0,0.0,95,0.00,CLR,OVC,0.00,WeatherDisplay:10.37,2013-04-23 13:07:00,
2013-04-23 09:12:00,47.0,45.9,29.51,ENE,67,0.0,0.0,96,0.00,CLR,OVC,0.00,WeatherDisplay:10.37,2013-04-23 13:12:00,
2013-04-23 09:17:00,48.0,46.9,29.51,SE,135,0.0,0.0,96,0.00,CLR,OVC,0.00,WeatherDisplay:10.37,2013-04-23 13:17:00,
2013-04-23 09:22:00,48.0,46.9,29.51,East,90,0.0,0.0,96,0.00,CLR,OVC,0.00,WeatherDisplay:10.37,2013-04-23 13:22:00,
2013-04-23 09:27:00,48.0,46.6,29.51,ESE,112,1.2,1.2,95,0.00,CLR,OVC,0.00,WeatherDisplay:10.37,2013-04-23 13:27:00,
2013-04-23 09:32:00,48.0,46.6,29.51,East,90,0.0,0.0,95,0.00,CLR,OVC,0.00,WeatherDisplay:10.37,2013-04-23 13:32:00,
2013-04-23 09:37:00,49.0,47.3,29.51,NE,45,0.0,0.0,94,0.00,CLR,OVC,0.00,WeatherDisplay:10.37,2013-04-23 13:37:00,
2013-04-23 09:42:00,49.0,47.1,29.51,SE,135,1.2,0.0,93,0.00,CLR,OVC,0.00,WeatherDisplay:10.37,2013-04-23 13:42:00,
2013-04-23 09:47:00,50.0,47.8,29.51,SE,135,0.0,0.0,92,0.00,CLR,OVC,0.00,WeatherDisplay:10.37,2013-04-23 13:47:00,
2013-04-23 09:52:00,50.0,47.5,29.51,SE,135,1.2,0.0,91,0.00,CLR,OVC,0.00,WeatherDisplay:10.37,2013-04-23 13:52:00,
2013-04-23 09:57:00,50.0,46.6,29.51,NE,45,0.0,0.0,88,0.00,CLR,OVC,0.00,WeatherDisplay:10.37,2013-04-23 13:57:00,
2013-04-23 10:02:00,50.0,46.9,29.51,North,360,0.0,0.0,89,0.00,CLR,OVC,0.00,WeatherDisplay:10.37,2013-04-23 14:02:00,
2013-04-23 10:07:00,50.0,46.9,29.51,SE,135,3.5,0.0,89,0.00,CLR,OVC,0.00,WeatherDisplay:10.37,2013-04-23 14:07:00,
2013-04-23 10:12:00,50.0,46.6,29.51,NNE,22,1.0,0.0,88,0.00,CLR,OVC,0.00,WeatherDisplay:10.37,2013-04-23 14:12:00,
2013-04-23 10:17:00,51.0,46.6,29.51,NNE,22,0.0,0.0,85,0.00,CLR,OVC,0.00,WeatherDisplay:10.37,2013-04-23 14:17:00,
2013-04-23 10:22:00,51.0,47.3,29.51,NE,45,0.0,0.0,87,0.00,CLR,OVC,0.00,WeatherDisplay:10.37,2013-04-23 14:22:00,
2013-04-23 10:27:00,51.0,46.6,29.52,ENE,67,1.2,1.2,85,0.00,CLR,OVC,0.00,WeatherDisplay:10.37,2013-04-23 14:27:00,
2013-04-23 10:32:00,51.0,46.6,29.52,ESE,112,0.0,0.0,85,0.00,CLR,OVC,0.00,WeatherDisplay:10.37,2013-04-23 14:32:00,
2013-04-23 10:37:00,51.0,46.6,29.52,ENE,67,0.0,0.1,85,0.00,CLR,OVC,0.00,WeatherDisplay:10.37,2013-04-23 14:37:00,
2013-04-23 10:42:00,51.0,47.0,29.52,NNE,22,0.0,0.0,86,0.00,CLR,OVC,0.00,WeatherDisplay:10.37,2013-04-23 14:42:00,
2013-04-23 10:48:00,51.0,45.7,29.52,ENE,67,1.2,0.0,82,0.00,CLR,OVC,0.00,WeatherDisplay:10.37,2013-04-23 14:48:00,
2013-04-23 10:53:00,52.0,46.7,29.52,East,90,0.0,0.1,82,0.00,CLR,OVC,0.00,WeatherDisplay:10.37,2013-04-23 14:53:00,
2013-04-23 10:58:00,53.0,46.7,29.51,NNE,22,1.2,1.2,79,0.00,CLR,OVC,0.00,WeatherDisplay:10.37,2013-04-23 14:58:00,
2013-04-23 11:03:00,52.0,46.0,29.51,ESE,112,1.2,1.2,80,0.00,CLR,OVC,0.00,WeatherDisplay:10.37,2013-04-23 15:03:00,
2013-04-23 11:08:00,52.0,46.7,29.51,ENE,67,0.0,0.0,82,0.00,CLR,OVC,0.00,WeatherDisplay:10.37,2013-04-23 15:08:00,
2013-04-23 11:13:00,52.0,45.7,29.51,NNE,22,0.0,0.0,79,0.00,CLR,OVC,0.00,WeatherDisplay:10.37,2013-04-23 15:13:00,
2013-04-23 11:18:00,53.0,46.3,29.51,East,90,2.3,2.3,78,0.00,CLR,OVC,0.00,WeatherDisplay:10.37,2013-04-23 15:18:00,
2013-04-23 11:23:00,53.0,46.0,29.51,SE,135,1.2,1.2,77,0.00,CLR,OVC,0.00,WeatherDisplay:10.37,2013-04-23 15:23:00,
2013-04-23 11:28:00,53.0,45.6,29.52,SSE,157,0.0,0.0,76,0.00,CLR,OVC,0.00,WeatherDisplay:10.37,2013-04-23 15:28:00,
2013-04-23 11:33:00,54.0,47.0,29.52,SE,135,0.0,0.0,77,0.00,CLR,OVC,0.00,WeatherDisplay:10.37,2013-04-23 15:33:00,
2013-04-23 11:38:00,55.0,47.2,29.51,SE,135,0.0,0.0,75,0.00,CLR,OVC,0.00,WeatherDisplay:10.37,2013-04-23 15:38:00,
2013-04-23 11:43:00,54.0,45.5,29.51,SE,135,0.0,0.0,73,0.00,CLR,OVC,0.00,WeatherDisplay:10.37,2013-04-23 15:43:00,
2013-04-23 11:48:00,55.0,46.5,29.52,SE,135,2.3,2.3,73,0.00,CLR,OVC,0.00,WeatherDisplay:10.37,2013-04-23 15:48:00,
2013-04-23 11:53:00,55.0,46.5,29.52,SE,135,0.0,0.0,73,0.00,CLR,OVC,0.00,WeatherDisplay:10.37,2013-04-23 15:53:00,
2013-04-23 11:58:00,56.0,46.7,29.51,SE,135,0.0,0.0,71,0.00,CLR,OVC,0.00,WeatherDisplay:10.37,2013-04-23 15:58:00,
2013-04-23 12:03:00,55.0,45.4,29.51,SE,135,3.5,3.5,70,0.00,CLR,OVC,0.00,WeatherDisplay:10.37,2013-04-23 16:03:00,
2013-04-23 12:08:00,55.0,46.9,29.51,SE,135,2.0,2.0,74,0.00,CLR,OVC,0.00,WeatherDisplay:10.37,2013-04-23 16:08:00,
2013-04-23 12:13:00,56.0,46.7,29.51,SE,135,3.5,3.5,71,0.00,CLR,OVC,0.00,WeatherDisplay:10.37,2013-04-23 16:13:00,
2013-04-23 12:18:00,58.0,47.5,29.51,SE,135,1.2,1.2,68,0.00,CLR,OVC,0.00,WeatherDisplay:10.37,2013-04-23 16:18:00,
2013-04-23 12:23:00,58.0,47.1,29.51,ESE,112,0.0,0.0,67,0.00,CLR,OVC,0.00,WeatherDisplay:10.37,2013-04-23 16:23:00,
2013-04-23 12:28:00,57.0,46.5,29.51,ESE,112,3.5,3.5,68,0.00,CLR,OVC,0.00,WeatherDisplay:10.37,2013-04-23 16:28:00,
2013-04-23 12:33:00,57.0,47.3,29.51,SE,135,2.3,2.3,70,0.00,CLR,OVC,0.00,WeatherDisplay:10.37,2013-04-23 16:33:00,
2013-04-23 12:38:00,57.0,46.9,29.52,ENE,67,0.0,0.0,69,0.00,CLR,OVC,0.00,WeatherDisplay:10.37,2013-04-23 16:38:00,
2013-04-23 12:43:00,58.0,46.3,29.52,NNE,22,1.2,1.2,65,0.00,CLR,OVC,0.00,WeatherDisplay:10.37,2013-04-23 16:43:00,
2013-04-23 12:48:00,59.0,47.7,29.52,WNW,292,1.2,1.2,66,0.00,CLR,OVC,0.00,WeatherDisplay:10.37,2013-04-23 16:48:00,
2013-04-23 12:53:00,58.0,46.3,29.52,SE,135,3.5,3.5,65,0.00,CLR,OVC,0.00,WeatherDisplay:10.37,2013-04-23 16:53:00,
2013-04-23 12:58:00,59.0,46.4,29.51,SSE,157,1.2,0.0,63,0.00,CLR,OVC,0.00,WeatherDisplay:10.37,2013-04-23 16:58:00,
2013-04-23 13:03:00,59.0,46.8,29.51,NNW,337,2.3,2.3,64,0.00,CLR,OVC,0.00,WeatherDisplay:10.37,2013-04-23 17:03:00,
2013-04-23 13:08:00,61.0,47.9,29.49,SE,135,0.0,0.0,62,0.00,CLR,OVC,0.00,WeatherDisplay:10.37,2013-04-23 17:08:00,
2013-04-23 13:13:00,61.0,47.9,29.49,West,270,2.0,2.0,62,0.00,CLR,OVC,0.00,WeatherDisplay:10.37,2013-04-23 17:13:00,
2013-04-23 13:18:00,62.0,48.4,29.48,WSW,247,0.0,0.0,61,0.00,CLR,OVC,0.00,WeatherDisplay:10.37,2013-04-23 17:18:00,
2013-04-23 13:23:00,62.0,47.5,29.48,ESE,112,3.5,3.5,59,0.00,CLR,OVC,0.00,WeatherDisplay:10.37,2013-04-23 17:23:00,
2013-04-23 13:28:00,62.0,47.5,29.48,NNW,337,0.0,0.0,59,0.00,CLR,OVC,0.00,WeatherDisplay:10.37,2013-04-23 17:28:00,
2013-04-23 13:33:00,62.0,48.0,29.48,ESE,112,0.0,0.0,60,0.00,CLR,OVC,0.00,WeatherDisplay:10.37,2013-04-23 17:33:00,
2013-04-23 13:38:00,63.0,48.9,29.47,SSE,157,4.0,4.0,60,0.00,CLR,OVC,0.00,WeatherDisplay:10.37,2013-04-23 17:38:00,
2013-04-23 13:43:00,62.0,45.6,29.47,SE,135,2.3,2.3,55,0.00,CLR,OVC,0.00,WeatherDisplay:10.37,2013-04-23 17:43:00,
2013-04-23 13:48:00,61.0,46.6,29.47,ESE,112,1.0,1.0,59,0.00,CLR,OVC,0.00,WeatherDisplay:10.37,2013-04-23 17:48:00,
2013-04-23 13:53:00,62.0,47.5,29.47,North,360,0.0,0.0,59,0.00,CLR,OVC,0.00,WeatherDisplay:10.37,2013-04-23 17:53:00,
2013-04-23 13:58:00,63.0,48.4,29.46,WNW,292,0.0,0.0,59,0.00,CLR,OVC,0.00,WeatherDisplay:10.37,2013-04-23 17:58:00,
2013-04-23 14:03:00,63.0,48.0,29.46,SW,225,2.3,0.0,58,0.00,CLR,OVC,0.00,WeatherDisplay:10.37,2013-04-23 18:03:00,
2013-04-23 14:08:00,62.0,47.0,29.47,SW,225,3.5,3.5,58,0.00,CLR,OVC,0.00,WeatherDisplay:10.37,2013-04-23 18:08:00,
2013-04-23 14:13:00,64.0,49.4,29.47,ENE,67,0.0,0.0,59,0.00,CLR,OVC,0.00,WeatherDisplay:10.37,2013-04-23 18:13:00,
2013-04-23 14:18:00,63.0,46.6,29.46,ESE,112,3.5,0.0,55,0.00,CLR,OVC,0.00,WeatherDisplay:10.37,2013-04-23 18:18:00,
2013-04-23 14:23:00,64.0,47.0,29.46,WSW,247,2.3,2.3,54,0.00,CLR,OVC,0.00,WeatherDisplay:10.37,2013-04-23 18:23:00,
2013-04-23 14:28:00,64.0,48.0,29.44,NW,315,2.3,2.3,56,0.00,CLR,OVC,0.00,WeatherDisplay:10.37,2013-04-23 18:28:00,
2013-04-23 14:33:00,65.0,49.4,29.44,ESE,112,0.0,0.0,57,0.00,CLR,OVC,0.00,WeatherDisplay:10.37,2013-04-23 18:33:00,
2013-04-23 14:38:00,64.0,47.5,29.45,WNW,292,0.0,0.0,55,0.00,CLR,OVC,0.00,WeatherDisplay:10.37,2013-04-23 18:38:00,
2013-04-23 14:43:00,65.0,46.9,29.45,South,180,0.0,0.0,52,0.00,CLR,OVC,0.00,WeatherDisplay:10.37,2013-04-23 18:43:00,
2013-04-23 14:48:00,66.0,47.3,29.44,SE,135,0.0,0.0,51,0.00,CLR,OVC,0.00,WeatherDisplay:10.37,2013-04-23 18:48:00,
2013-04-23 14:53:00,65.0,47.9,29.44,ESE,112,0.0,0.0,54,0.00,CLR,OVC,0.00,WeatherDisplay:10.37,2013-04-23 18:53:00,
2013-04-23 14:58:00,65.0,46.9,29.43,NW,315,2.3,2.3,52,0.00,CLR,OVC,0.00,WeatherDisplay:10.37,2013-04-23 18:58:00,
2013-04-23 15:03:00,66.0,46.8,29.43,NE,45,0.0,0.0,50,0.00,CLR,OVC,0.00,WeatherDisplay:10.37,2013-04-23 19:03:00,
2013-04-23 15:08:00,66.0,46.3,29.43,SSE,157,2.3,0.0,49,0.00,CLR,OVC,0.00,WeatherDisplay:10.37,2013-04-23 19:08:00,
2013-04-23 15:13:00,67.0,47.7,29.43,South,180,1.2,0.0,50,0.00,CLR,OVC,0.00,WeatherDisplay:10.37,2013-04-23 19:13:00,
2013-04-23 15:18:00,68.0,49.2,29.41,SE,135,1.2,0.0,51,0.00,CLR,OVC,0.00,WeatherDisplay:10.37,2013-04-23 19:18:00,
2013-04-23 15:23:00,70.0,50.5,29.41,SE,135,0.0,0.0,50,0.00,CLR,OVC,0.00,WeatherDisplay:10.37,2013-04-23 19:23:00,
2013-04-23 15:28:00,70.0,49.4,29.40,SE,135,0.0,0.0,48,0.00,CLR,OVC,0.00,WeatherDisplay:10.37,2013-04-23 19:28:00,
2013-04-23 15:33:00,69.0,47.9,29.40,SSE,157,0.0,0.0,47,0.00,CLR,OVC,0.00,WeatherDisplay:10.37,2013-04-23 19:33:00,
2013-04-23 15:38:00,69.0,48.5,29.41,SE,135,0.0,0.0,48,0.00,CLR,OVC,0.00,WeatherDisplay:10.37,2013-04-23 19:38:00,
2013-04-23 15:43:00,70.0,49.4,29.41,SE,135,0.0,0.0,48,0.00,CLR,OVC,0.00,WeatherDisplay:10.37,2013-04-23 19:43:00,
2013-04-23 15:48:00,69.0,47.4,29.40,ENE,67,0.0,0.0,46,0.00,CLR,OVC,0.00,WeatherDisplay:10.37,2013-04-23 19:48:00,
2013-04-23 15:53:00,70.0,47.1,29.40,SSE,157,0.0,0.0,44,0.00,CLR,OVC,0.00,WeatherDisplay:10.37,2013-04-23 19:53:00,
2013-04-23 15:58:00,70.0,47.1,29.40,SSW,202,3.5,0.0,44,0.00,CLR,OVC,0.00,WeatherDisplay:10.37,2013-04-23 19:58:00,
2013-04-23 16:03:00,69.0,46.8,29.40,SSW,202,2.0,2.0,45,0.00,CLR,OVC,0.00,WeatherDisplay:10.37,2013-04-23 20:03:00,
2013-04-23 16:09:00,69.0,47.9,29.39,SE,135,3.5,3.5,47,0.00,CLR,OVC,0.00,WeatherDisplay:10.37,2013-04-23 20:09:00,
2013-04-23 16:14:00,69.0,48.5,29.39,SW,225,0.0,0.0,48,0.00,CLR,OVC,0.00,WeatherDisplay:10.37,2013-04-23 20:14:00,
2013-04-23 16:19:00,69.0,47.9,29.39,WSW,247,2.3,0.0,47,0.00,CLR,OVC,0.00,WeatherDisplay:10.37,2013-04-23 20:19:00,
2013-04-23 16:24:00,69.0,48.5,29.39,ENE,67,2.3,0.0,48,0.00,CLR,OVC,0.00,WeatherDisplay:10.37,2013-04-23 20:24:00,
2013-04-23 16:29:00,69.0,48.5,29.39,SE,135,3.5,3.5,48,0.00,CLR,OVC,0.00,WeatherDisplay:10.37,2013-04-23 20:29:00,
2013-04-23 16:34:00,69.0,48.5,29.39,NNW,337,0.0,0.0,48,0.00,CLR,OVC,0.00,WeatherDisplay:10.37,2013-04-23 20:34:00,
2013-04-23 16:39:00,69.0,48.5,29.39,East,90,0.0,0.0,48,0.00,CLR,OVC,0.00,WeatherDisplay:10.37,2013-04-23 20:39:00,
2013-04-23 16:44:00,70.0,48.3,29.39,NE,45,0.0,0.2,46,0.00,CLR,OVC,0.00,WeatherDisplay:10.37,2013-04-23 20:44:00,
2013-04-23 16:49:00,69.0,47.4,29.37,SSW,202,1.2,1.2,46,0.00,CLR,OVC,0.00,WeatherDisplay:10.37,2013-04-23 20:49:00,
2013-04-23 16:54:00,69.0,47.4,29.37,South,180,0.0,0.0,46,0.00,CLR,OVC,0.00,WeatherDisplay:10.37,2013-04-23 20:54:00,
2013-04-23 16:59:00,69.0,47.9,29.38,SE,135,0.0,0.0,47,0.00,CLR,OVC,0.00,WeatherDisplay:10.37,2013-04-23 20:59:00,
2013-04-23 17:04:00,69.0,48.5,29.38,ESE,112,0.0,0.0,48,0.00,CLR,OVC,0.00,WeatherDisplay:10.37,2013-04-23 21:04:00,
2013-04-23 17:09:00,69.0,48.5,29.38,NNE,22,1.2,1.2,48,0.00,CLR,OVC,0.00,WeatherDisplay:10.37,2013-04-23 21:09:00,
2013-04-23 17:14:00,69.0,48.5,29.38,South,180,0.0,0.0,48,0.00,CLR,OVC,0.00,WeatherDisplay:10.37,2013-04-23 21:14:00,
2013-04-23 17:19:00,69.0,47.4,29.37,SSW,202,1.2,0.0,46,0.00,CLR,OVC,0.00,WeatherDisplay:10.37,2013-04-23 21:19:00,
2013-04-23 17:24:00,68.0,47.6,29.37,South,180,0.0,0.0,48,0.00,CLR,OVC,0.00,WeatherDisplay:10.37,2013-04-23 21:24:00,
2013-04-23 17:29:00,67.0,47.2,29.37,SSW,202,1.2,1.2,49,0.00,CLR,OVC,0.00,WeatherDisplay:10.37,2013-04-23 21:29:00,
2013-04-23 17:34:00,66.0,46.8,29.37,SW,225,1.2,0.0,50,0.00,CLR,OVC,0.00,WeatherDisplay:10.37,2013-04-23 21:34:00,
2013-04-23 17:39:00,66.0,47.9,29.38,SW,225,0.0,0.0,52,0.00,CLR,OVC,0.00,WeatherDisplay:10.37,2013-04-23 21:39:00,
2013-04-23 17:44:00,65.0,47.4,29.38,SW,225,0.0,0.0,53,0.00,CLR,OVC,0.00,WeatherDisplay:10.37,2013-04-23 21:44:00,
2013-04-23 17:49:00,65.0,47.4,29.37,SW,225,0.0,0.0,53,0.00,CLR,OVC,0.00,WeatherDisplay:10.37,2013-04-23 21:49:00,
2013-04-23 17:54:00,65.0,47.9,29.37,SW,225,0.0,0.0,54,0.00,CLR,OVC,0.00,WeatherDisplay:10.37,2013-04-23 21:54:00,
2013-04-23 17:59:00,64.0,47.0,29.37,SW,225,0.0,0.0,54,0.00,CLR,OVC,0.00,WeatherDisplay:10.37,2013-04-23 21:59:00,
2013-04-23 18:04:00,64.0,48.5,29.37,SSW,202,0.0,0.0,57,0.00,CLR,OVC,0.00,WeatherDisplay:10.37,2013-04-23 22:04:00,
2013-04-23 18:09:00,64.0,48.5,29.38,SSW,202,0.0,0.0,57,0.00,CLR,OVC,0.00,WeatherDisplay:10.37,2013-04-23 22:09:00,
2013-04-23 18:14:00,64.0,48.5,29.38,SW,225,0.0,0.0,57,0.00,CLR,OVC,0.00,WeatherDisplay:10.37,2013-04-23 22:14:00,
2013-04-23 18:19:00,64.0,48.5,29.37,SSE,157,1.2,0.0,57,0.00,CLR,OVC,0.00,WeatherDisplay:10.37,2013-04-23 22:19:00,
2013-04-23 18:24:00,63.0,48.0,29.37,South,180,0.0,0.0,58,0.00,CLR,OVC,0.00,WeatherDisplay:10.37,2013-04-23 22:24:00,
2013-04-23 18:29:00,63.0,48.0,29.37,SW,225,0.0,0.0,58,0.00,CLR,OVC,0.00,WeatherDisplay:10.37,2013-04-23 22:29:00,
2013-04-23 18:34:00,63.0,48.4,29.37,SW,225,0.0,0.0,59,0.00,CLR,OVC,0.00,WeatherDisplay:10.37,2013-04-23 22:34:00,
2013-04-23 18:39:00,63.0,48.9,29.37,SW,225,0.0,0.0,60,0.00,CLR,OVC,0.00,WeatherDisplay:10.37,2013-04-23 22:39:00,
2013-04-23 18:44:00,62.0,48.0,29.37,SW,225,0.0,0.0,60,0.00,CLR,OVC,0.00,WeatherDisplay:10.37,2013-04-23 22:44:00,
2013-04-23 18:49:00,62.0,48.4,29.37,SW,225,0.0,0.0,61,0.00,CLR,OVC,0.00,WeatherDisplay:10.37,2013-04-23 22:49:00,
2013-04-23 18:54:00,62.0,48.8,29.37,SW,225,0.0,0.0,62,0.00,CLR,OVC,0.00,WeatherDisplay:10.37,2013-04-23 22:54:00,
2013-04-23 18:59:00,61.0,48.7,29.37,SW,225,0.0,0.0,64,0.00,CLR,OVC,0.00,WeatherDisplay:10.37,2013-04-23 22:59:00,
2013-04-23 19:04:00,61.0,49.1,29.37,SW,225,0.0,0.0,65,0.00,CLR,OVC,0.00,WeatherDisplay:10.37,2013-04-23 23:04:00,
2013-04-23 19:09:00,61.0,49.6,29.37,SW,225,0.0,0.0,66,0.00,CLR,OVC,0.00,WeatherDisplay:10.37,2013-04-23 23:09:00,
2013-04-23 19:14:00,61.0,50.0,29.37,SW,225,0.0,0.0,67,0.00,CLR,OVC,0.00,WeatherDisplay:10.37,2013-04-23 23:14:00,
2013-04-23 19:19:00,60.0,49.0,29.37,SW,225,0.0,0.0,67,0.00,CLR,OVC,0.00,WeatherDisplay:10.37,2013-04-23 23:19:00,
2013-04-23 19:24:00,60.0,50.2,29.37,SW,225,0.0,0.0,70,0.00,CLR,OVC,0.00,WeatherDisplay:10.37,2013-04-23 23:24:00,
2013-04-23 19:29:00,60.0,50.6,29.37,SW,225,0.0,0.0,71,0.00,CLR,OVC,0.00,WeatherDisplay:10.37,2013-04-23 23:29:00,
2013-04-23 19:34:00,59.0,49.6,29.37,SW,225,0.0,0.0,71,0.00,CLR,OVC,0.00,WeatherDisplay:10.37,2013-04-23 23:34:00,
2013-04-23 19:39:00,59.0,49.6,29.38,SW,225,0.0,0.0,71,0.00,CLR,OVC,0.00,WeatherDisplay:10.37,2013-04-23 23:39:00,
2013-04-23 19:44:00,58.0,50.1,29.38,SW,225,0.0,0.0,75,0.00,CLR,OVC,0.00,WeatherDisplay:10.37,2013-04-23 23:44:00,
2013-04-23 19:49:00,57.0,49.5,29.38,SW,225,0.0,0.0,76,0.00,CLR,OVC,0.00,WeatherDisplay:10.37,2013-04-23 23:49:00,
2013-04-23 19:54:00,57.0,49.5,29.38,SW,225,0.0,0.0,76,0.00,CLR,OVC,0.00,WeatherDisplay:10.37,2013-04-23 23:54:00,
2013-04-23 19:59:00,56.0,48.5,29.38,SW,225,0.0,0.0,76,0.00,CLR,OVC,0.00,WeatherDisplay:10.37,2013-04-23 23:59:00,
2013-04-23 20:04:00,56.0,48.9,29.38,SW,225,0.0,0.0,77,0.00,CLR,OVC,0.00,WeatherDisplay:10.37,2013-04-24 00:04:00,
2013-04-23 20:09:00,55.0,49.3,29.38,SW,225,0.0,0.0,81,0.00,CLR,OVC,0.00,WeatherDisplay:10.37,2013-04-24 00:09:00,
2013-04-23 20:14:00,55.0,49.6,29.38,SW,225,0.0,0.0,82,0.00,CLR,OVC,0.00,WeatherDisplay:10.37,2013-04-24 00:14:00,
2013-04-23 20:19:00,54.0,49.3,29.39,SW,225,0.0,0.0,84,0.00,CLR,OVC,0.00,WeatherDisplay:10.37,2013-04-24 00:19:00,
2013-04-23 20:24:00,54.0,49.6,29.39,SW,225,0.0,0.0,85,0.00,CLR,OVC,0.00,WeatherDisplay:10.37,2013-04-24 00:24:00,
2013-04-23 20:29:00,54.0,49.6,29.39,SW,225,0.0,0.0,85,0.00,CLR,OVC,0.00,WeatherDisplay:10.37,2013-04-24 00:29:00,
2013-04-23 20:34:00,54.0,49.9,29.39,SW,225,0.0,0.0,86,0.00,CLR,OVC,0.00,WeatherDisplay:10.37,2013-04-24 00:34:00,
2013-04-23 20:39:00,54.0,49.9,29.40,SW,225,0.0,0.0,86,0.00,CLR,OVC,0.00,WeatherDisplay:10.37,2013-04-24 00:39:00,
2013-04-23 20:44:00,54.0,50.2,29.40,SW,225,0.0,0.0,87,0.00,CLR,OVC,0.00,WeatherDisplay:10.37,2013-04-24 00:44:00,
2013-04-23 20:49:00,54.0,50.5,29.40,SW,225,0.0,0.0,88,0.00,CLR,OVC,0.00,WeatherDisplay:10.37,2013-04-24 00:49:00,
2013-04-23 20:54:00,53.0,49.2,29.40,SW,225,0.0,0.0,87,0.00,CLR,OVC,0.00,WeatherDisplay:10.37,2013-04-24 00:54:00,
2013-04-23 20:59:00,53.0,49.2,29.40,SW,225,0.0,0.0,87,0.00,CLR,OVC,0.00,WeatherDisplay:10.37,2013-04-24 00:59:00,
2013-04-23 21:04:00,53.0,49.5,29.40,SW,225,0.0,0.0,88,0.00,CLR,OVC,0.00,WeatherDisplay:10.37,2013-04-24 01:04:00,
2013-04-23 21:09:00,52.0,49.2,29.40,SW,225,0.0,0.0,90,0.00,CLR,OVC,0.00,WeatherDisplay:10.37,2013-04-24 01:09:00,
2013-04-23 21:14:00,52.0,49.5,29.40,SW,225,0.0,0.0,91,0.00,CLR,OVC,0.00,WeatherDisplay:10.37,2013-04-24 01:14:00,
2013-04-23 21:19:00,52.0,49.7,29.40,SW,225,0.0,0.0,92,0.00,CLR,OVC,0.00,WeatherDisplay:10.37,2013-04-24 01:19:00,
2013-04-23 21:24:00,52.0,49.7,29.40,SW,225,0.0,0.0,92,0.00,CLR,OVC,0.00,WeatherDisplay:10.37,2013-04-24 01:24:00,
2013-04-23 21:29:00,51.0,48.8,29.39,SW,225,0.0,0.0,92,0.00,CLR,OVC,0.00,WeatherDisplay:10.37,2013-04-24 01:29:00,
2013-04-23 21:34:00,51.0,49.3,29.39,SW,225,0.0,0.0,94,0.00,CLR,OVC,0.00,WeatherDisplay:10.37,2013-04-24 01:34:00,
2013-04-23 21:40:00,51.0,49.6,29.41,SW,225,0.0,0.0,95,0.00,CLR,OVC,0.00,WeatherDisplay:10.37,2013-04-24 01:40:00,
2013-04-23 21:45:00,51.0,49.9,29.41,SW,225,0.0,0.0,96,0.00,CLR,OVC,0.00,WeatherDisplay:10.37,2013-04-24 01:45:00,
2013-04-23 21:50:00,51.0,49.9,29.41,SW,225,0.0,0.0,96,0.00,CLR,OVC,0.00,WeatherDisplay:10.37,2013-04-24 01:50:00,
2013-04-23 21:55:00,51.0,49.9,29.41,SW,225,0.0,0.0,96,0.00,CLR,OVC,0.00,WeatherDisplay:10.37,2013-04-24 01:55:00,
2013-04-23 22:00:00,51.0,49.6,29.41,SW,225,0.0,0.0,95,0.00,CLR,OVC,0.00,WeatherDisplay:10.37,2013-04-24 02:00:00,
2013-04-23 22:05:00,51.0,49.6,29.41,SW,225,0.0,0.0,95,0.00,CLR,OVC,0.00,WeatherDisplay:10.37,2013-04-24 02:05:00,
2013-04-23 22:10:00,51.0,49.6,29.40,SW,225,0.0,0.0,95,0.00,CLR,OVC,0.00,WeatherDisplay:10.37,2013-04-24 02:10:00,
2013-04-23 22:15:00,50.0,49.2,29.40,SW,225,0.0,0.0,97,0.00,CLR,OVC,0.00,WeatherDisplay:10.37,2013-04-24 02:15:00,
2013-04-23 22:20:00,50.0,49.2,29.40,SW,225,0.0,0.0,97,0.00,CLR,OVC,0.00,WeatherDisplay:10.37,2013-04-24 02:20:00,
2013-04-23 22:25:00,50.0,49.5,29.40,SW,225,0.0,0.0,98,0.00,CLR,OVC,0.00,WeatherDisplay:10.37,2013-04-24 02:25:00,
2013-04-23 22:30:00,50.0,49.7,29.41,SW,225,0.0,0.0,99,0.00,CLR,OVC,0.00,WeatherDisplay:10.37,2013-04-24 02:30:00,
2013-04-23 22:36:00,50.0,50.0,29.41,SW,225,0.0,0.0,100,0.00,CLR,OVC,0.00,WeatherDisplay:10.37,2013-04-24 02:36:00,
2013-04-23 22:42:00,50.0,50.0,29.41,SW,225,0.0,0.0,100,0.00,CLR,OVC,0.00,WeatherDisplay:10.37,2013-04-24 02:42:00,
2013-04-23 22:47:00,50.0,50.0,29.41,SW,225,0.0,0.0,100,0.00,CLR,OVC,0.00,WeatherDisplay:10.37,2013-04-24 02:47:00,
2013-04-23 22:52:00,49.0,48.7,29.40,SW,225,0.0,0.0,99,0.00,CLR,OVC,0.00,WeatherDisplay:10.37,2013-04-24 02:52:00,
2013-04-23 22:57:00,49.0,49.0,29.40,SW,225,0.0,0.0,100,0.00,CLR,OVC,0.00,WeatherDisplay:10.37,2013-04-24 02:57:00,
2013-04-23 23:02:00,49.0,49.0,29.40,SW,225,0.0,0.0,100,0.00,CLR,OVC,0.00,WeatherDisplay:10.37,2013-04-24 03:02:00,
2013-04-23 23:07:00,49.0,49.0,29.40,SW,225,0.0,0.0,100,0.00,CLR,OVC,0.00,WeatherDisplay:10.37,2013-04-24 03:07:00,
2013-04-23 23:12:00,49.0,49.0,29.40,SW,225,0.0,0.0,100,0.00,CLR,OVC,0.00,WeatherDisplay:10.37,2013-04-24 03:12:00,
2013-04-23 23:17:00,49.0,49.0,29.40,SW,225,0.0,0.0,100,0.00,CLR,OVC,0.00,WeatherDisplay:10.37,2013-04-24 03:17:00,
2013-04-23 23:22:00,49.0,49.0,29.38,SW,225,0.0,0.0,100,0.00,CLR,OVC,0.00,WeatherDisplay:10.37,2013-04-24 03:22:00,
2013-04-23 23:27:00,49.0,49.0,29.39,SW,225,0.0,0.0,100,0.00,CLR,OVC,0.00,WeatherDisplay:10.37,2013-04-24 03:27:00,
2013-04-23 23:33:00,50.0,50.0,29.39,SW,225,0.0,0.0,100,0.00,CLR,OVC,0.00,WeatherDisplay:10.37,2013-04-24 03:33:00,
2013-04-23 23:38:00,50.0,50.0,29.38,SW,225,0.0,0.0,100,0.00,CLR,OVC,0.00,WeatherDisplay:10.37,2013-04-24 03:38:00,
2013-04-23 23:43:00,50.0,50.0,29.38,SW,225,0.0,0.0,100,0.00,CLR,OVC,0.00,WeatherDisplay:10.37,2013-04-24 03:43:00,
2013-04-23 23:49:00,50.0,50.0,29.38,SW,225,0.0,0.0,100,0.00,CLR,OVC,0.00,WeatherDisplay:10.37,2013-04-24 03:49:00,
2013-04-23 23:54:00,50.0,50.0,29.38,SW,225,0.0,0.0,100,0.00,CLR,OVC,0.00,WeatherDisplay:10.37,2013-04-24 03:54:00,